Location: Unspecified
(0.0000°N, 0.0000°E)
Time: 23:22:03
(UTC+00:00)

A-11 Canister half - All Passes

Search period start: 20 October 2017 00:00
Search period end: 30 October 2017 00:00
Orbit: 1527 x 1682 km, 47.3° (Epoch: 19 October)

Date Brightness Start Highest point End Pass type
(mag) Time Alt. Az. Time Alt. Az. Time Alt. Az.
20 Oct - 00:42:21 10° W 00:49:36 24° NW 00:56:43 10° N night (unlit)
20 Oct - 09:22:37 10° N 09:30:36 30° NE 09:38:46 10° ESE daylight
20 Oct - 11:26:09 10° NW 11:35:27 57° SW 11:45:08 10° SSE daylight
20 Oct - 20:14:03 10° SSE 20:17:20 12° SE 20:20:36 10° ESE visible
20 Oct - 22:13:10 10° SSW 22:23:04 67° SE 22:32:34 10° NE visible
21 Oct - 00:20:24 10° W 00:27:59 25° NW 00:35:25 10° N night (unlit)
21 Oct - 09:01:15 10° N 09:08:59 28° NE 09:16:53 10° ESE daylight
21 Oct - 11:04:29 10° NW 11:13:51 61° SW 11:23:35 10° SSE daylight
21 Oct - 13:19:08 10° SW 13:19:41 10° SW 13:20:16 10° SW daylight
21 Oct - 19:53:35 10° SSE 19:55:38 11° SE 19:57:41 10° SE visible
21 Oct - 21:51:37 10° SSW 22:01:28 63° SE 22:10:57 10° NE visible
21 Oct - 23:58:28 10° WSW 00:06:22 28° NW 00:14:05 10° N night (unlit)
22 Oct - 08:39:55 10° N 08:47:23 26° NE 08:54:58 10° ESE daylight
22 Oct - 10:42:51 10° NW 10:52:15 65° SW 11:02:01 10° SSE daylight
22 Oct - 12:55:23 10° WSW 12:57:59 11° SW 13:00:38 10° SSW daylight
22 Oct - 21:30:03 10° SSW 21:39:51 59° SE 21:49:17 10° NE visible
22 Oct - 23:36:34 10° WSW 23:44:44 30° NW 23:52:43 10° N night (unlit)
23 Oct - 08:18:36 10° N 08:25:45 24° NE 08:33:02 10° E daylight
23 Oct - 10:21:14 10° NW 10:30:40 70° SW 10:40:27 10° SSE daylight
23 Oct - 12:32:42 10° WSW 12:36:17 12° SW 12:39:57 10° SSW daylight
23 Oct - 21:08:31 10° SSW 21:18:14 55° SE 21:27:38 10° NE visible
23 Oct - 23:14:42 10° WSW 23:23:07 32° NW 23:31:21 10° N night (unlit)
24 Oct - 07:57:19 10° N 08:04:08 22° NE 08:11:03 10° E daylight
24 Oct - 09:59:37 10° NW 10:09:03 75° SW 10:18:52 10° SSE daylight
24 Oct - 12:10:16 10° WSW 12:14:36 14° SW 12:19:00 10° SSW daylight
24 Oct - 20:46:57 10° SSW 20:56:37 51° SE 21:05:57 10° ENE visible
24 Oct - 22:52:51 10° WSW 23:01:31 35° NW 23:09:58 10° NNE visible
25 Oct - 07:36:03 10° N 07:42:30 20° NE 07:49:02 10° E daylight
25 Oct - 09:38:01 10° NW 09:47:28 80° SW 09:57:17 10° SE daylight
25 Oct - 11:48:00 10° WSW 11:52:55 15° SW 11:57:57 10° SSW daylight
25 Oct - 20:25:26 10° SSW 20:35:00 48° SE 20:44:15 10° ENE visible
25 Oct - 22:31:01 10° WSW 22:39:54 37° NW 22:48:33 10° NNE visible
26 Oct - 07:14:50 10° N 07:20:53 19° NE 07:26:59 10° E daylight
26 Oct - 09:16:26 10° NW 09:25:53 85° SW 09:35:40 10° SE daylight
26 Oct - 11:25:49 10° W 11:31:15 16° SW 11:36:47 10° S daylight
26 Oct - 20:03:55 10° SSW 20:13:23 45° SE 20:22:32 10° ENE visible
26 Oct - 22:09:12 10° WSW 22:18:17 40° NW 22:27:07 10° NNE visible
27 Oct - 06:53:40 10° N 06:59:14 17° NE 07:04:53 10° E daylight
27 Oct - 08:54:52 10° NW 09:04:17 90° WSW 09:14:03 10° SE daylight
27 Oct - 11:03:43 10° W 11:09:35 18° SW 11:15:36 10° S daylight
27 Oct - 19:42:25 10° SSW 19:51:45 42° SE 20:00:48 10° ENE visible
27 Oct - 21:47:25 10° WSW 21:56:40 43° NW 22:05:41 10° NNE visible
28 Oct - 06:32:33 10° NNE 06:37:36 16° NE 06:42:42 10° E daylight
28 Oct - 08:33:18 10° NW 08:42:42 85° NE 08:52:26 10° SE daylight
28 Oct - 10:41:41 10° W 10:47:55 19° SW 10:54:20 10° S daylight
28 Oct - 19:20:56 10° SSW 19:30:07 39° SE 19:39:02 10° ENE visible
28 Oct - 21:25:39 10° WSW 21:35:04 47° NW 21:44:13 10° NNE visible
29 Oct - 06:11:31 10° NNE 06:15:57 14° NE 06:20:26 10° ENE daylight
29 Oct - 08:11:45 10° NW 08:21:07 80° NE 08:30:49 10° SE daylight
29 Oct - 10:19:41 10° W 10:26:16 21° SW 10:33:02 10° S daylight
29 Oct - 18:59:28 10° SSW 19:08:29 36° SE 19:17:16 10° ENE visible
29 Oct - 21:03:53 10° WSW 21:13:27 50° NW 21:22:46 10° NNE visible
